World > North America > United States > Iowa

Hourly Pocahontas, IA Regional Weather

Feedback E-mail the Weather

Quick WX

Pocahontas, IA Weather Maps

°F °C°F °C
Pocahontas Weather Map
UTC Time: 6/28/2022, 23:57
Your Time:

Pocahontas, IA Regional Weather

Expires:202206290000;;353916
ASUS43 KDMX 282306
RWRIA 

WEATHER ROUNDUP FOR IOWA
NATIONAL WEATHER SERVICE DES MOINES IA
600 PM CDT TUE JUN 28 2022

NOTE: "FAIR" INDICATES FEW OR NO CLOUDS BELOW 12,000 FEET WITH NO
SIGNIFICANT WEATHER AND/OR OBSTRUCTIONS TO VISIBILITY.

* - THESE STATIONS ARE NOT NWS STATIONS...THUS NOT UNDER NWS
QUALITY CONTROL.  THEY ALSO DO NOT REPORT WEATHER SUCH 
AS PRECIPITATION OR FOG.  


IAZ004>006-015-016-023>025-035-036-290000-
   NORTH CENTRAL IOWA
  
CITY           SKY/WX    TMP DP  RH WIND       PRES   REMARKS
ALGONA *       SUNNY     86  59  39 NW16G22   30.01S HX  85           
CLARION *      MOSUNNY   86  59  39 SW13G20   30.03F HX  85           
ESTHERVILLE    SUNNY     85  57  38 N9        30.03S HX  84           
FORT DODGE *   SUNNY     86  62  44 SW15G21   30.04S HX  86           
MASON CITY     MOSUNNY   82  58  43 SW13G25   30.02F HX  82           
FOREST CITY *  PTSUNNY   84  61  45 W12       30.01F HX  84           
WEBSTER CITY * SUNNY     86  61  42 SW17      30.02F HX  86           
IOWA FALLS *   PTSUNNY   82  60  47 SW10      30.07S HX  83           
$$


SKY/WX - Weather  TMP - Temperature  DP - Dew Point  RH - Humidity
WIND - Wind Direction/Speed PRES - Barometric Pressure VSB - Visibility
WCI - Wind Chill Index E13G22 Wind - East Wind 13 mph/Gusts of 22 mph

Trending Headlines

Pocahontas Radar Loop



Pocahontas Quick Facts


National Two Day Weather Forecast


E-mail the Pocahontas Weather Forecast

Voice your opinion or tell us about page issues...